DW9210 Weather Reports


time (UTC)temp
C
wind
direction
speed
KPH
gust
KPH
rain 1hr
cm
rain 24hr
cm
rain mn
cm
humidity
%
barometer
mb
20260510151503 21 232 4.8 11.3 0.00 0.00 0.00 68 1014.0
20260510151003 21 226 4.8 14.5 0.00 0.00 0.00 64 1013.9
20260510150503 21 237 6.4 16.1 0.00 0.00 0.00 70 1013.8
20260510150024 21 238 8.0 16.1 0.00 0.00 0.00 67 1013.8
20260510145503 20 248 8.0 14.5 0.00 0.00 0.00 70 1013.7
20260510145003 20 248 8.0 14.5 0.00 0.00 0.00 68 1013.7
20260510144524 20 241 8.0 16.1 0.00 0.00 0.00 66 1013.7
20260510144003 20 232 6.4 16.1 0.00 0.00 0.00 67 1013.6
20260510143503 20 226 8.0 16.1 0.00 0.00 0.00 67 1013.6
20260510143003 20 232 6.4 16.1 0.00 0.00 0.00 68 1013.6
20260510142503 20 239 4.8 16.1 0.00 0.00 0.00 69 1013.5
20260510142024 19 244 4.8 11.3 0.00 0.00 0.00 70 1013.5
20260510141503 19 237 3.2 9.7 0.00 0.00 0.00 71 1013.5
20260510141003 18 234 4.8 12.9 0.00 0.00 0.00 73 1013.5
20260510140524 18 232 4.8 12.9 0.00 0.00 0.00 72 1013.5
20260510140003 18 233 3.2 12.9 0.00 0.00 0.00 71 1013.4
20260510135503 18 233 1.6 9.7 0.00 0.00 0.00 72 1013.3
20260510135003 18 226 1.6 6.4 0.00 0.00 0.00 73 1013.4
20260510134503 18 226 1.6 6.4 0.00 0.00 0.00 74 1013.4
20260510134003 18 220 3.2 9.7 0.00 0.00 0.00 76 1013.3
20260510133503 17 225 3.2 9.7 0.00 0.00 0.00 74 1013.3
20260510133003 17 239 3.2 9.7 0.00 0.00 0.00 74 1013.3
20260510132503 17 241 3.2 9.7 0.00 0.00 0.00 75 1013.3
20260510132003 17 231 3.2 8.0 0.00 0.00 0.00 75 1013.2
20260510131503 17 224 3.2 8.0 0.00 0.00 0.00 77 1013.1
20260510131003 17 226 3.2 8.0 0.00 0.00 0.00 77 1013.0
20260510130524 16 221 3.2 8.0 0.00 0.00 0.00 77 1013.1
20260510130003 16 206 3.2 9.7 0.00 0.00 0.00 78 1012.9
20260510125524 16 206 3.2 9.7 0.00 0.00 0.00 78 1012.7
20260510125024 16 205 3.2 8.0 0.00 0.00 0.00 79 1012.6
20260510124503 16 201 3.2 8.0 0.00 0.00 0.00 81 1012.6
20260510124003 15 202 1.6 6.4 0.00 0.00 0.00 80 1012.6
20260510123503 15 207 1.6 8.0 0.00 0.00 0.00 80 1012.6
20260510123003 15 208 1.6 9.7 0.00 0.00 0.00 81 1012.6
20260510122503 15 202 3.2 9.7 0.00 0.00 0.00 81 1012.7
20260510122003 15 202 3.2 9.7 0.00 0.00 0.00 82 1012.6
20260510121503 15 202 1.6 6.4 0.00 0.00 0.00 81 1012.6
20260510121003 15 203 1.6 6.4 0.00 0.00 0.00 82 1012.6
20260510120503 15 201 3.2 8.0 0.00 0.00 0.00 82 1012.6
20260510120003 15 198 3.2 8.0 0.00 0.00 0.00 82 1012.5
20260510115503 14 203 3.2 6.4 0.00 0.00 0.00 83 1012.5
20260510115003 14 206 3.2 9.7 0.00 0.00 0.00 83 1012.4
20260510114503 14 209 3.2 9.7 0.00 0.00 0.00 84 1012.4
20260510114003 14 204 3.2 11.3 0.00 0.00 0.00 84 1012.4
20260510113503 13 208 3.2 11.3 0.00 0.00 0.00 85 1012.3
20260510113024 13 223 3.2 11.3 0.00 0.00 0.00 86 1012.4
20260510112524 13 218 3.2 11.3 0.00 0.00 0.00 87 1012.4
20260510112003 13 210 1.6 6.4 0.00 0.00 0.00 87 1012.2
20260510111503 13 217 1.6 4.8 0.00 0.00 0.00 88 1012.2
20260510111024 13 213 1.6 4.8 0.00 0.00 0.00 88 1012.2
20260510110503 12 210 1.6 8.0 0.00 0.00 0.00 89 1012.1
20260510110003 12 220 1.6 8.0 0.00 0.00 0.00 89 1012.1
20260510105503 12 220 1.6 8.0 0.00 0.00 0.00 90 1012.0
20260510105003 12 221 1.6 6.4 0.00 0.00 0.00 91 1012.0
20260510104503 12 234 1.6 6.4 0.00 0.00 0.00 92 1011.9
20260510104003 12 233 3.2 9.7 0.00 0.00 0.00 93 1011.9
20260510103503 11 228 1.6 9.7 0.00 0.00 0.00 93 1011.7
20260510103003 11 213 1.6 4.8 0.00 0.00 0.00 93 1011.5
20260510102503 11 204 1.6 4.8 0.00 0.00 0.00 94 1011.5
20260510102024 11 197 0.0 1.6 0.00 0.00 0.00 93 1011.4
20260510101503 11 200 0.0 1.6 0.00 0.00 0.00 93 1011.2
20260510101024 11 198 0.0 1.6 0.00 0.00 0.00 93 1011.2
20260510100503 11 188 0.0 1.6 0.00 0.00 0.00 94 1011.2
20260510100003 11 181 0.0 1.6 0.00 0.00 0.00 94 1011.1
20260510095503 11 185 0.0 3.2 0.00 0.00 0.00 93 1011.0
20260510095003 11 184 0.0 3.2 0.00 0.00 0.00 93 1011.0
20260510094503 11 191 0.0 1.6 0.00 0.00 0.00 93 1011.0
20260510094003 11 209 0.0 1.6 0.00 0.00 0.00 94 1010.9
20260510093524 11 235 0.0 1.6 0.00 0.00 0.00 93 1010.9
20260510093003 11 0 0.0 0.0 0.00 0.00 0.00 93 1010.8
20260510092524 11 0 0.0 0.0 0.00 0.00 0.00 94 1010.9
20260510092003 11 0 0.0 0.0 0.00 0.00 0.00 93 1010.8
20260510091503 11 236 0.0 3.2 0.00 0.00 0.00 93 1010.7
20260510091024 11 230 0.0 3.2 0.00 0.00 0.00 94 1010.7
20260510090503 11 234 0.0 3.2 0.00 0.00 0.00 94 1010.7
20260510090003 11 237 0.0 3.2 0.00 0.00 0.00 94 1010.7
20260510085503 11 239 0.0 3.2 0.00 0.00 0.00 93 1010.8
20260510085003 11 244 0.0 3.2 0.00 0.00 0.00 93 1010.7
20260510084503 11 241 0.0 3.2 0.00 0.00 0.00 93 1010.8
20260510084003 11 244 0.0 3.2 0.00 0.00 0.00 93 1010.8
20260510083503 11 254 0.0 3.2 0.00 0.00 0.00 93 1010.8
20260510083003 11 256 0.0 3.2 0.00 0.00 0.00 93 1010.6
20260510082524 11 257 0.0 1.6 0.00 0.00 0.00 93 1010.6
20260510082003 11 256 0.0 1.6 0.00 0.00 0.00 93 1010.5
20260510081503 11 236 0.0 1.6 0.00 0.00 0.00 92 1010.3
20260510081003 11 202 0.0 1.6 0.00 0.00 0.00 92 1010.2
20260510080503 11 208 0.0 3.2 0.00 0.00 0.00 91 1010.2
20260510080003 11 215 0.0 3.2 0.00 0.00 0.00 91 1010.1
20260510075503 11 215 0.0 1.6 0.00 0.00 0.00 91 1010.2
20260510075003 11 0 0.0 0.0 0.00 0.00 0.00 91 1010.1
20260510074503 11 211 0.0 1.6 0.00 0.00 0.00 91 1010.1
20260510074003 11 211 0.0 1.6 0.00 0.00 0.00 91 1010.2
20260510073503 11 0 0.0 0.0 0.00 0.00 0.00 90 1010.2
20260510073003 12 0 0.0 0.0 0.00 0.00 0.00 89 1010.1
20260510072503 12 178 0.0 1.6 0.00 0.00 0.00 89 1010.1
20260510072024 12 190 0.0 3.2 0.00 0.00 0.00 88 1010.1
20260510071503 12 197 0.0 3.2 0.00 0.00 0.00 88 1010.1
20260510071024 12 207 0.0 3.2 0.00 0.00 0.00 88 1010.1
20260510070503 12 217 1.6 9.7 0.00 0.00 0.00 88 1010.1
20260510070024 12 222 1.6 9.7 0.00 0.00 0.00 88 1010.1
20260510065503 13 219 0.0 3.2 0.00 0.00 0.00 87 1010.1
20260510065003 13 212 1.6 4.8 0.00 0.00 0.00 86 1010.1
20260510064503 13 207 1.6 4.8 0.00 0.00 0.00 86 1010.1
20260510064003 13 204 1.6 4.8 0.00 0.00 0.00 86 1010.1
20260510063503 13 206 1.6 4.8 0.00 0.00 0.00 86 1010.1
20260510063003 13 207 1.6 6.4 0.00 0.00 0.00 85 1010.1
20260510062503 13 205 1.6 6.4 0.00 0.00 0.00 85 1010.2
20260510062024 14 209 1.6 4.8 0.00 0.00 0.00 85 1010.2
20260510061503 14 213 1.6 4.8 0.00 0.00 0.00 85 1010.2
20260510061003 14 210 1.6 4.8 0.00 0.00 0.00 85 1010.2
20260510060503 14 210 1.6 4.8 0.00 0.00 0.00 84 1010.2
20260510060024 14 215 1.6 6.4 0.00 0.00 0.00 84 1010.2
20260510055524 14 223 1.6 6.4 0.00 0.00 0.00 84 1010.2
20260510055003 14 215 1.6 4.8 0.00 0.00 0.00 84 1010.3
20260510054524 14 207 1.6 4.8 0.00 0.00 0.00 84 1010.3
20260510054003 14 221 1.6 3.2 0.00 0.00 0.00 83 1010.1
20260510053503 14 223 1.6 4.8 0.00 0.00 0.00 82 1010.2
20260510053003 14 219 1.6 4.8 0.00 0.00 0.00 82 1010.2
20260510052524 15 216 1.6 4.8 0.00 0.00 0.00 82 1010.1
20260510052003 15 219 1.6 9.7 0.00 0.00 0.00 82 1010.2
20260510051503 15 220 1.6 9.7 0.00 0.00 0.00 82 1010.2
20260510051003 15 218 1.6 8.0 0.00 0.00 0.00 81 1010.2
20260510050503 15 216 1.6 8.0 0.00 0.00 0.00 81 1010.2
20260510050003 15 216 1.6 6.4 0.00 0.00 0.00 81 1010.2
20260510045503 15 217 1.6 4.8 0.00 0.00 0.00 80 1010.2
20260510045024 15 209 1.6 4.8 0.00 0.00 0.00 80 1010.2
20260510044503 15 211 1.6 4.8 0.00 0.00 0.00 80 1010.3
20260510044003 15 213 3.2 8.0 0.00 0.00 0.00 79 1010.3
20260510043503 15 213 3.2 8.0 0.00 0.00 0.00 79 1010.3
20260510043003 15 215 3.2 6.4 0.00 0.00 0.00 79 1010.2
20260510042503 15 215 1.6 6.4 0.00 0.00 0.00 79 1010.2
20260510042024 15 216 1.6 8.0 0.00 0.00 0.00 79 1010.2
20260510041503 16 218 3.2 8.0 0.00 0.00 0.00 78 1010.3
20260510041003 16 210 3.2 6.4 0.00 0.00 0.00 79 1010.3
20260510040503 16 208 3.2 8.0 0.00 0.00 0.00 78 1010.3
20260510040003 16 216 3.2 8.0 0.00 0.00 0.00 79 1010.4
20260510035503 16 214 3.2 8.0 0.00 0.00 0.00 79 1010.4
20260510035024 16 209 3.2 8.0 0.00 0.00 0.00 79 1010.5
20260510034524 16 205 3.2 8.0 0.00 0.00 0.00 80 1010.5
20260510034003 15 207 3.2 6.4 0.00 0.00 0.00 80 1010.4
20260510033503 15 209 3.2 14.5 0.00 0.00 0.00 80 1010.5
20260510033003 15 205 3.2 14.5 0.00 0.00 0.00 81 1010.5
20260510032503 15 200 3.2 9.7 0.00 0.00 0.00 83 1010.4
20260510032003 15 202 3.2 9.7 0.00 0.00 0.00 84 1010.5
20260510031503 15 199 3.2 8.0 0.00 0.00 0.00 85 1010.3
20260510031003 14 195 1.6 6.4 0.00 0.00 0.00 86 1010.3
20260510030503 14 200 1.6 6.4 0.00 0.00 0.00 87 1010.3
20260510030003 14 199 1.6 9.7 0.00 0.00 0.00 87 1010.2
20260510025503 13 199 1.6 9.7 0.00 0.00 0.00 87 1010.2
20260510025003 14 202 1.6 6.4 0.00 0.00 0.00 87 1010.2
20260510024503 14 205 0.0 6.4 0.00 0.00 0.00 86 1010.1
20260510024003 14 188 0.0 1.6 0.00 0.00 0.00 84 1010.1
20260510023524 15 0 0.0 0.0 0.00 0.00 0.00 85 1010.1
20260510023003 15 0 0.0 0.0 0.00 0.00 0.00 83 1010.0
20260510022503 15 0 0.0 0.0 0.00 0.00 0.00 83 1009.9
20260510022003 15 0 0.0 0.0 0.00 0.00 0.00 82 1009.8
20260510021503 15 0 0.0 0.0 0.00 0.00 0.00 82 1009.7
20260510021003 16 0 0.0 0.0 0.00 0.00 0.00 81 1009.6
20260510020503 16 0 0.0 0.0 0.00 0.00 0.00 81 1009.4
20260510020003 16 179 0.0 1.6 0.00 0.00 0.00 79 1009.4
20260510015503 16 179 0.0 1.6 0.00 0.00 0.00 79 1009.2
20260510015024 16 173 0.0 1.6 0.00 0.00 0.00 78 1009.2
20260510014503 17 173 0.0 1.6 0.00 0.00 0.00 77 1009.0
20260510014003 17 180 0.0 1.6 0.00 0.00 0.00 75 1008.9
20260510013503 17 173 0.0 1.6 0.00 0.00 0.00 75 1008.8
20260510013003 17 168 0.0 1.6 0.00 0.00 0.00 74 1008.7
20260510012503 17 160 0.0 1.6 0.00 0.00 0.00 72 1008.7
20260510012024 18 162 0.0 1.6 0.00 0.00 0.00 72 1008.7
20260510011524 18 168 0.0 1.6 0.00 0.00 0.00 71 1008.6
20260510011003 18 171 0.0 3.2 0.00 0.00 0.00 70 1008.5
20260510010503 18 172 0.0 3.2 0.00 0.00 0.00 69 1008.5
20260510010003 18 171 0.0 4.8 0.00 0.00 0.00 68 1008.4
20260510005503 19 170 1.6 4.8 0.00 0.00 0.00 67 1008.4
20260510005024 19 176 1.6 6.4 0.00 0.00 0.00 67 1008.4
20260510004503 19 185 1.6 6.4 0.00 0.00 0.00 66 1008.3
20260510004003 20 190 1.6 6.4 0.00 0.00 0.00 66 1008.3
20260510003524 20 193 3.2 6.4 0.00 0.00 0.00 65 1008.3
20260510003003 20 199 3.2 8.0 0.00 0.00 0.00 65 1008.1
20260510002503 20 203 3.2 8.0 0.00 0.00 0.00 64 1008.1
20260510002003 20 198 3.2 11.3 0.00 0.00 0.00 64 1008.1
20260510001503 21 191 3.2 11.3 0.00 0.00 0.00 63 1008.0
20260510001003 21 188 3.2 11.3 0.00 0.00 0.00 62 1008.0
20260510000524 21 191 3.2 11.3 0.00 0.00 0.00 62 1008.0
20260510000003 21 190 3.2 11.3 0.00 0.00 0.00 61 1008.0
20260509235503 21 193 3.2 11.3 0.00 0.00 0.00 61 1007.9
20260509235003 21 195 3.2 12.9 0.00 0.00 0.00 61 1007.9
20260509234503 22 192 4.8 12.9 0.00 0.00 0.00 60 1007.8
20260509234003 22 197 3.2 12.9 0.00 0.00 0.00 60 1007.8
20260509233503 22 200 3.2 11.3 0.00 0.00 0.00 59 1007.7
20260509233003 22 201 4.8 17.7 0.00 0.00 0.00 59 1007.8
20260509232503 22 198 4.8 17.7 0.00 0.00 0.00 57 1007.7
20260509232003 22 194 4.8 12.9 0.00 0.00 0.00 57 1007.7
20260509231503 23 195 4.8 12.9 0.00 0.00 0.00 56 1007.7
20260509231003 23 200 4.8 12.9 0.00 0.00 0.00 56 1007.6
20260509230503 23 207 4.8 14.5 0.00 0.00 0.00 55 1007.5
20260509230003 23 210 4.8 14.5 0.00 0.00 0.00 56 1007.6
20260509225503 23 183 4.8 14.5 0.00 0.00 0.00 56 1007.6
20260509225003 23 176 4.8 14.5 0.00 0.00 0.00 55 1007.6
20260509224503 23 199 3.2 14.5 0.00 0.00 0.00 54 1007.6
20260509224004 23 205 4.8 16.1 0.00 0.00 0.00 55 1007.6
20260509223503 23 212 4.8 16.1 0.00 0.00 0.00 52 1007.6
20260509223003 23 214 3.2 11.3 0.00 0.00 0.00 52 1007.6
20260509222524 23 205 4.8 17.7 0.00 0.00 0.00 51 1007.6
20260509222024 24 205 4.8 17.7 0.00 0.00 0.00 51 1007.6
20260509221503 24 205 3.2 12.9 0.00 0.00 0.00 53 1007.6
20260509221003 24 217 4.8 14.5 0.00 0.00 0.00 55 1007.6
20260509220503 23 229 4.8 14.5 0.00 0.00 0.00 51 1007.5
20260509220003 24 229 4.8 11.3 0.00 0.00 0.00 51 1007.5
20260509215503 24 232 3.2 11.3 0.00 0.00 0.00 52 1007.5
20260509215003 23 240 6.4 19.3 0.00 0.00 0.00 50 1007.5
20260509214503 23 230 6.4 19.3 0.00 0.00 0.00 49 1007.5
20260509214024 23 218 6.4 16.1 0.00 0.00 0.00 49 1007.5
20260509213503 23 215 6.4 16.1 0.00 0.00 0.00 53 1007.6
20260509213003 23 204 4.8 16.1 0.00 0.00 0.00 54 1007.6
20260509212503 23 201 4.8 12.9 0.00 0.00 0.00 54 1007.7
20260509212003 23 220 4.8 12.9 0.00 0.00 0.00 54 1007.7
20260509211503 23 241 4.8 12.9 0.00 0.00 0.00 53 1007.7
20260509211003 23 250 4.8 12.9 0.00 0.00 0.00 54 1007.8
20260509210524 23 238 4.8 12.9 0.00 0.00 0.00 54 1007.7
20260509210003 23 219 4.8 12.9 0.00 0.00 0.00 56 1007.7
20260509205503 23 213 4.8 14.5 0.00 0.00 0.00 55 1007.7
20260509205003 23 201 4.8 16.1 0.00 0.00 0.00 58 1007.7
20260509204503 23 220 4.8 16.1 0.00 0.00 0.00 56 1007.8
20260509204003 23 236 4.8 14.5 0.00 0.00 0.00 55 1007.9
20260509203503 23 257 4.8 12.9 0.00 0.00 0.00 58 1007.9
20260509203003 23 246 6.4 20.9 0.00 0.00 0.00 59 1007.9
20260509202503 23 234 8.0 20.9 0.00 0.00 0.00 54 1008.0
20260509202024 23 224 6.4 20.9 0.00 0.00 0.00 57 1008.0
20260509201503 22 222 8.0 16.1 0.00 0.00 0.00 62 1007.8
20260509201003 22 220 8.0 17.7 0.00 0.00 0.00 60 1008.0
20260509200524 22 203 8.0 22.5 0.00 0.00 0.00 59 1008.0
20260509200003 22 200 6.4 22.5 0.00 0.00 0.00 61 1008.0
20260509195503 22 214 4.8 17.7 0.00 0.00 0.00 63 1008.1
20260509195003 23 206 4.8 17.7 0.00 0.00 0.00 60 1008.2
20260509194503 23 210 4.8 11.3 0.00 0.00 0.00 60 1008.3
20260509194003 23 220 4.8 12.9 0.00 0.00 0.00 63 1008.4
20260509193503 22 221 4.8 17.7 0.00 0.00 0.00 59 1008.3
20260509193003 22 239 4.8 17.7 0.00 0.00 0.00 60 1008.4
20260509192503 22 233 4.8 11.3 0.00 0.00 0.00 63 1008.4
20260509192024 22 228 4.8 11.3 0.00 0.00 0.00 62 1008.4
20260509191503 22 227 6.4 19.3 0.00 0.00 0.00 62 1008.4
20260509191003 22 225 8.0 19.3 0.00 0.00 0.00 61 1008.4
20260509190503 22 235 8.0 17.7 0.00 0.00 0.00 63 1008.5
20260509190003 22 226 6.4 17.7 0.00 0.00 0.00 63 1008.5
20260509185503 22 210 6.4 17.7 0.00 0.00 0.00 64 1008.4
20260509185003 22 230 6.4 17.7 0.00 0.00 0.00 64 1008.5
20260509184503 22 243 6.4 17.7 0.00 0.00 0.00 64 1008.5
20260509184024 22 234 6.4 19.3 0.00 0.00 0.00 67 1008.6
20260509183503 22 231 8.0 19.3 0.00 0.00 0.00 63 1008.5
20260509183003 21 225 8.0 19.3 0.00 0.00 0.00 62 1008.6
20260509182503 21 218 8.0 19.3 0.00 0.00 0.00 65 1008.5
20260509182024 21 221 6.4 19.3 0.00 0.00 0.00 66 1008.6
20260509181503 21 225 4.8 19.3 0.00 0.00 0.00 67 1008.6
20260509181003 21 218 4.8 14.5 0.00 0.00 0.00 65 1008.5
20260509180503 21 223 6.4 14.5 0.00 0.00 0.00 65 1008.5
20260509180003 21 224 6.4 16.1 0.00 0.00 0.00 71 1008.5
20260509175503 21 231 6.4 20.9 0.00 0.00 0.00 68 1008.4
20260509175003 21 237 6.4 20.9 0.00 0.00 0.00 69 1008.4
20260509174524 21 233 4.8 14.5 0.00 0.00 0.00 68 1008.3
20260509174003 21 233 6.4 20.9 0.00 0.00 0.00 70 1008.4
20260509173503 21 225 8.0 20.9 0.00 0.00 0.00 67 1008.6
20260509173003 21 237 6.4 19.3 0.00 0.00 0.00 66 1008.6
20260509172503 21 233 6.4 16.1 0.00 0.00 0.00 71 1008.6
20260509172024 21 215 4.8 17.7 0.00 0.00 0.00 67 1008.5
20260509171503 21 229 4.8 17.7 0.00 0.00 0.00 75 1008.5
20260509171024 20 219 6.4 16.1 0.00 0.00 0.00 71 1008.5
20260509170503 20 215 6.4 14.5 0.00 0.00 0.00 71 1008.4
20260509170003 20 226 6.4 16.1 0.00 0.00 0.00 71 1008.4
20260509165503 20 217 8.0 17.7 0.00 0.00 0.00 73 1008.4
20260509165003 20 198 6.4 19.3 0.00 0.00 0.00 71 1008.4
20260509164503 20 198 6.4 19.3 0.00 0.00 0.00 71 1008.4
20260509164003 19 219 6.4 16.1 0.00 0.00 0.00 71 1008.4
20260509163503 19 221 6.4 16.1 0.00 0.00 0.00 71 1008.5
20260509163003 19 215 4.8 16.1 0.00 0.00 0.00 73 1008.4
20260509162524 19 226 6.4 19.3 0.00 0.00 0.00 75 1008.4
20260509162003 18 218 6.4 19.3 0.00 0.00 0.00 72 1008.5
20260509161503 19 211 6.4 19.3 0.00 0.00 0.00 73 1008.5
20260509161024 18 210 6.4 19.3 0.00 0.00 0.00 73 1008.4
20260509160503 18 215 4.8 16.1 0.00 0.00 0.00 72 1008.4
20260509160003 19 216 4.8 16.1 0.00 0.00 0.00 72 1008.4
20260509155503 19 208 4.8 14.5 0.00 0.00 0.00 74 1008.4
20260509155003 18 220 4.8 14.5 0.00 0.00 0.00 73 1008.4
20260509154503 18 230 4.8 12.9 0.00 0.00 0.00 74 1008.4
20260509154003 18 228 4.8 12.9 0.00 0.00 0.00 74 1008.5
20260509153524 18 226 6.4 14.5 0.00 0.00 0.00 73 1008.4
20260509153003 18 221 6.4 14.5 0.00 0.00 0.00 72 1008.5
20260509152503 17 215 6.4 16.1 0.00 0.00 0.00 74 1008.5
20260509152003 17 225 6.4 19.3 0.00 0.00 0.00 76 1008.5